Крушево

Северная Македония     41°20′28″N   21°15′20″E
темп.,
°C
ветер,
м/с
пор.,
м/с
влажн.,
%
обл.,
%
осадки,
мм/ч
давл.,
гПа
погр.,
м
9 мая, вс
вс923:00+7с228425 0.0 102218
02:00+6ссз228376 0.0 102323
05:00+5ссз11855 0.0 102413
08:00+10всв116531 0.0 1024319
11:00+14вюв22500 0.0 1023921
14:00+18юв235420 0.0 10221293
17:00+17юв436418 0.0 1021842
20:00+10ююв12900 0.0 102318
10 мая, пн
пн1023:00+8юв11950 0.0 102412
02:00+7сз019714 0.0 102410
05:00+6зюз009722 0.0 102410
08:00+11вюв118429 0.0 1023317
11:00+16вюв22655 0.0 1021834
14:00+20вюв325568 0.0 10191157
17:00+19юв22555 0.0 1018954
20:00+13юв11815 0.0 101811
11 мая, вт
вт1123:00+10ссв01905 0.0 101911
02:00+9сз11920 0.0 101910
05:00+8зсз00940 0.0 101810
08:00+13вюв11822 0.0 1017275
11:00+18вюв22631 0.0 1016796
14:00+21вюв335298 0.0 10131351
17:00+21юв33543 0.0 1011999
20:00+15ю11815 0.0 101114
12 мая, ср
ср1223:00+12юз11870 0.0 101211
02:00+11зюз11900 0.0 101110
05:00+10юз11921 0.0 100910
08:00+15ю227822 0.0 1008415
11:00+20юз4549100 0.2 10071908
14:00+20юз474830 0.2 10061929
17:00+17з685949 0.0 1006869
20:00+13з337564 0.0 100873
13 мая, чт
чт1323:00+10з328799 0.0 100931
02:00+8з32890 0.0 100925
05:00+8зюз32884 0.0 100924
08:00+13зюз49560 0.0 10081092
11:00+16зюз911477 0.0 10091814
14:00+16зюз8104720 0.0 10092118
17:00+16зюз795118 0.0 10091956
20:00+10зюз3265100 0.0 101122